STARLINK-1255, 45399

Orbit data source: Space-Track

STARLINK-1255, 45399 is a payload satellite owned by SpaceX/Seattle (US) in LEO that was launched on Wed, 18 Mar 2020 UTC via an FALCON 9 launch vehicle from the Air Force Eastern Test Range (AFETR). Payload-class satellites include a variety of spacecraft equipped with specific instruments for various scientific and technological missions. These include communications satellites like Starlink; space stations such as the ISS; scientific satellites like the Hubble; Earth observation satellites from companies like Planet Labs, Umbra, and HawkEye 360; GPS; miniature CubeSats for education and research; and military/defense satellites.

Loading next visibility...
Identifier
45399, 2020-019AR
Orbit
LEO
Country
Flag of USUS
Related business
Manufacturer
SpaceX/Seattle
Mission
Partially operational Commercial Communications
Bus & Motor
STARLINK, Unknown motor
Mass
260 kg wet, ~248 kg dry
Launch date (UTC)
2020-03-18 (6 years ago)
Launch vehicle
FALCON 9
Launch site
Air Force Eastern Test Range (AFETR)
Object type
Payload
Rocket body
Debris
Shape & HBR
Box + 1 Pan, 10.1 m
Radar Cross Section
13.562 m², Large (>1 m²)

Expand to show TLE details & history
Last TLE update: 13 hours ago

TLE from 13 hours ago
0 STARLINK-1255
1 45399U 20019AR  26129.39341630  .00052013  00000-0  59150-3 0  9995
2 45399  53.0349 168.0996 0006418  10.6019 349.5128 15.61788744339896
Epoch: 2026-05-09T09:26Z
TLE epoch observation values (Epoch: 2026-05-09T09:26:31.168Z)
Latitude
-0.00001°
Longitude
159.25823°
Altitude
379.122 km
Speed
7.686 km/s
True Right ascension
11h 12m 23s
True Declination
0° 00' 00"
Sunlit
Object was in full shadow at epoch
Visualization orbit readout
Latitude
Unknown
Longitude
Unknown
Altitude
Unknown
Speed
Unknown
Apparent Right ascension
Unknown
Apparent Declination
Unknown
Sunlit
N/A
Visualization observer readout
Local Sidereal Time
07:05:32
Azimuth
Unknown
Elevation
Unknown
Doppler factor
Unknown
Orbital elements
Apogee altitude
387.11 km
Perigee altitude
378.431 km
Semi-major axis
6,760.907 km
Eccentricity
0.00064
Inclination
53.0349°
RAAN
168.0996°
Arg. of periapsis
10.6019°
True anomaly
349.4994°
Mean anomaly
349.5128°
Eccentric anomaly
349.5061°
Mean motion
3.90423 °/min
Orbital period
92.21 mins
BSTAR
0.0005915
Loading maneuver chart data...
Computing Atmospheric mass density...

Documentation

Showing up to 5 results
|